Flag for Poland Weather past 2 weeks in Bytom, Poland

Now
61 °F

Broken clouds.


Feels Like: 61 °F
Forecast: 57 / 69 °F
Wind: 3 mph from Southwest

Location: Katowice Airport

Current Time: Aug 31, 2014 at 10:16:23 AM

Latest Report: Aug 31, 2014 at 10:00 AM


Visibility: 4 mi

Pressure: 29.98 "Hg

Humidity: 100%

Dew point: 61 °F

Location of BytomLocation

Historic Weather in Bytom — Graph

°F

Bytom temperature yesterday

Maximum temperature yesterday: 73 °F (at 4:30 PM)
Minimum temperature yesterday: 59 °F (at 5:30 AM)
Average temperature yesterday: 65 °F

Past Weeks' High & Low Weather Summary

 TemperatureHumidityPressure
High73 °F (Aug 18, 1:00 PM)100% (Aug 20, 12:30 AM)30.09 "Hg (Aug 20, 12:30 AM)
Low43 °F (Aug 22, 4:30 AM)38% (Aug 29, 4:30 PM)29.74 "Hg (Aug 26, 12:00 PM)
Average59 °F77%29.97 "Hg
* Reported Aug 16 9:00 AM — Aug 31 9:00 AM, Bytom, Weather by CustomWeather, © 2014

Note: Actual official high and low records may vary slightly from our data, if they occured in-between our weather recording intervals... More about our weather records

Advertising

Bytom weather history for previous 24 hours

 ConditionsComfort  
Time TempWeatherWind HumidityBarometerVisibility
9:00 AM
Aug 31
59 °FFog.3 mph100%30.01 "Hg1 mi
8:30 AM59 °FFog.2 mph100%30.01 "Hg1 mi
8:00 AM57 °FDense fog.3 mph100%30.01 "Hg1 mi
7:30 AM57 °FFog.2 mph100%30.01 "Hg0 mi
7:00 AM57 °FFog.2 mph100%30.01 "Hg0 mi
6:30 AM57 °FFog.No wind94%30.01 "Hg0 mi
6:00 AM55 °FFog.No wind100%30.01 "Hg0 mi
5:30 AM55 °FFog.No wind94%30.01 "Hg0 mi
5:00 AM54 °FFog.1 mph100%30.01 "Hg0 mi
4:30 AM54 °FFog.1 mph94%30.01 "Hg1 mi
4:00 AM57 °FCool.2 mph94%30.01 "Hg1 mi
3:30 AM55 °FCool.No wind94%30.01 "Hg1 mi
3:00 AM57 °FFog.3 mph94%30.04 "Hg1 mi
2:30 AM57 °FFog.2 mph100%30.04 "Hg1 mi
2:00 AM57 °FFog.2 mph94%30.04 "Hg4 mi
1:30 AM59 °FClear.1 mph94%30.04 "Hg10 mi
1:00 AM57 °FClear.5 mph100%30.04 "Hg10 mi
12:30 AM59 °FClear.2 mph94%30.04 "Hg10 mi
12:00 AM61 °FClear.2 mph88%30.04 "Hg10 mi
11:30 PM
Aug 30
61 °FPassing clouds.5 mph94%30.04 "HgN/A
11:00 PM61 °FPassing clouds.3 mph88%30.04 "HgN/A
10:30 PM61 °FPassing clouds.3 mph88%30.04 "HgN/A
10:00 PM63 °FPassing clouds.3 mph83%30.04 "HgN/A
9:30 PM61 °FPassing clouds.5 mph88%30.04 "HgN/A
9:00 PM61 °FPassing clouds.7 mph88%30.04 "HgN/A
8:00 PM68 °FSunny.3 mph73%30.04 "Hg10 mi
7:30 PM70 °FPassing clouds.3 mph64%30.04 "HgN/A
7:00 PM70 °FPassing clouds.2 mph60%30.04 "HgN/A
6:30 PM72 °FPassing clouds.3 mph53%30.04 "HgN/A
6:00 PM72 °FPassing clouds.7 mph53%30.04 "HgN/A
5:30 PM72 °FPassing clouds.8 mph53%30.04 "HgN/A
5:00 PM73 °FPassing clouds.6 mph50%30.04 "HgN/A
4:30 PM73 °FScattered clouds.7 mph57%30.04 "HgN/A
4:00 PM72 °FPassing clouds.9 mph57%30.04 "HgN/A
3:30 PM72 °FPassing clouds.9 mph61%30.04 "HgN/A
3:00 PM72 °FPassing clouds.6 mph61%30.04 "HgN/A
2:30 PM70 °FPassing clouds.7 mph69%30.07 "HgN/A
2:00 PM70 °FScattered clouds.8 mph69%30.07 "HgN/A
1:30 PM70 °FScattered clouds.7 mph69%30.07 "HgN/A
1:00 PM70 °FScattered clouds.7 mph69%30.07 "HgN/A
12:30 PM68 °FScattered clouds.9 mph69%30.07 "HgN/A
12:00 PM68 °FScattered clouds.8 mph73%30.07 "HgN/A
11:30 AM66 °FPartly sunny.9 mph78%30.07 "HgN/A
11:00 AM68 °FPartly sunny.6 mph73%30.07 "HgN/A
10:30 AM66 °FScattered clouds.7 mph78%30.07 "HgN/A
10:00 AM64 °FPassing clouds.6 mph83%30.07 "HgN/A
Weather by CustomWeather, © 2014

See weather overviewHow to use our weather pages